Flag for Turkey Weather past 2 weeks in Gaziantep, Turkey

Now
43 °F

Clear.


Feels Like: 40 °F
Forecast: 35 / 54 °F
Wind: 5 mph from North

Location: Gaziantep Airport

Current Time: Jan 25, 2015 at 10:47:34 PM

Latest Report: Jan 25, 2015 at 10:20 PM


Visibility: 10 mi

Pressure: 30.15 "Hg

Humidity: 66%

Dew point: 32 °F

Location of GaziantepLocation

Historic Weather in Gaziantep — Graph

°F

Gaziantep temperature yesterday

Maximum temperature yesterday: 54 °F (at 12:20 PM)
Minimum temperature yesterday: 34 °F (at 3:50 AM)
Average temperature yesterday: 44 °F

Past Weeks' High & Low Weather Summary

 TemperatureHumidityPressure
High57 °F (Jan 20, 11:20 AM)100% (Jan 10, 9:50 PM)30.42 "Hg (Jan 10, 9:50 PM)
Low19 °F (Jan 12, 5:50 AM)24% (Jan 18, 1:50 PM)30.01 "Hg (Jan 15, 2:20 PM)
Average38 °F75%30.20 "Hg
* Reported Jan 10 9:20 PM — Jan 25 9:50 PM, Gaziantep, Weather by CustomWeather, © 2014

Note: Actual official high and low records may vary slightly from our data, if they occured in-between our weather recording intervals... More about our weather records

Advertising

Gaziantep weather history for previous 24 hours

 ConditionsComfort  
Time TempWeatherWind HumidityBarometerVisibility
9:50 PM
Jan 25
45 °FPassing clouds.3 mph66%30.15 "HgN/A
9:20 PM43 °FClear.6 mph71%30.15 "Hg10 mi
8:50 PM45 °FPassing clouds.5 mph66%30.15 "HgN/A
8:20 PM45 °FClear.No wind66%30.15 "Hg10 mi
7:50 PM43 °FPassing clouds.6 mph71%30.15 "HgN/A
7:20 PM43 °FPassing clouds.3 mph71%30.15 "HgN/A
6:50 PM48 °FClear.2 mph58%30.15 "Hg10 mi
6:20 PM45 °FClear.3 mph66%30.15 "Hg10 mi
5:50 PM46 °FClear.2 mph62%30.15 "Hg10 mi
5:20 PM50 °FPassing clouds.5 mph54%30.15 "HgN/A
4:50 PM50 °FClear.7 mph54%30.15 "Hg10 mi
4:20 PM54 °FSunny.10 mph47%30.12 "Hg10 mi
3:50 PM54 °FSunny.15 mph44%30.12 "Hg10 mi
3:20 PM55 °FSunny.16 mph41%30.12 "Hg10 mi
2:50 PM55 °FSunny.16 mph41%30.12 "Hg10 mi
2:20 PM57 °FSunny.14 mph39%30.12 "Hg10 mi
1:50 PM55 °FSunny.14 mph44%30.12 "Hg10 mi
1:20 PM54 °FPassing clouds.15 mph47%30.12 "HgN/A
12:50 PM54 °FSunny.15 mph47%30.15 "Hg10 mi
12:20 PM52 °FPassing clouds.16 mph50%30.15 "HgN/A
11:50 AM52 °FScattered clouds.14 mph50%30.15 "HgN/A
11:20 AM50 °FScattered clouds.14 mph54%30.18 "HgN/A
10:50 AM50 °FScattered clouds.13 mph54%30.18 "HgN/A
10:20 AM48 °FScattered clouds.9 mph54%30.21 "HgN/A
9:50 AM48 °FScattered clouds.9 mph54%30.21 "HgN/A
9:20 AM46 °FPartly sunny.10 mph57%30.21 "HgN/A
8:50 AM45 °FPartly sunny.8 mph57%30.18 "HgN/A
8:20 AM43 °FBroken clouds.8 mph61%30.18 "HgN/A
7:50 AM41 °FScattered clouds.3 mph70%30.18 "HgN/A
7:20 AM39 °FSunny.2 mph70%30.18 "Hg10 mi
6:50 AM37 °FPassing clouds.3 mph75%30.18 "HgN/A
6:20 AM37 °FClear.8 mph75%30.18 "Hg10 mi
5:50 AM37 °FClear.9 mph75%30.18 "Hg10 mi
5:20 AM37 °FClear.8 mph75%30.15 "Hg10 mi
4:50 AM37 °FClear.7 mph75%30.15 "Hg10 mi
4:20 AM37 °FClear.8 mph75%30.15 "Hg10 mi
3:50 AM37 °FClear.6 mph75%30.15 "Hg10 mi
3:20 AM37 °FClear.5 mph75%30.15 "Hg10 mi
2:50 AM39 °FClear.6 mph75%30.15 "Hg10 mi
2:20 AM39 °FClear.7 mph75%30.15 "Hg10 mi
1:50 AM39 °FClear.7 mph75%30.18 "Hg10 mi
1:20 AM39 °FClear.7 mph75%30.18 "Hg10 mi
12:50 AM39 °FClear.7 mph75%30.18 "Hg10 mi
12:20 AM39 °FClear.5 mph75%30.18 "Hg10 mi
11:50 PM
Jan 24
39 °FClear.2 mph75%30.18 "Hg10 mi
11:20 PM39 °FClear.2 mph75%30.18 "Hg10 mi
10:50 PM41 °FPassing clouds.5 mph70%30.18 "HgN/A
10:20 PM39 °FClear.6 mph75%30.18 "Hg10 mi
Weather by CustomWeather, © 2014

See weather overviewHow to use our weather pages